Tracking 30922 objects as of 2-Jul-2025
HD Live streaming from Space Station
objects crossing your sky now

ARIANE 2 DEB

Track ARIANE 2 DEB now!


NORAD ID: 28566
Int'l Code: 1989-006AH
Perigee: 726.9 km
Apogee: 35,168.7 km
Inclination: 7.2 °
Period: 629.0 minutes
Semi major axis: 24318 km
RCS: 0.1259 m2 (medium)
Launch date: January 27, 1989
Source: France (FR)
Launch site: FRENCH GUIANA (FRGUI)

Note: This is SATELLITE DEBRIS
Your satellite tracking list
Your tracking list is empty




NASA's NSSDC Master Catalog

Two Line Element Set (TLE):
1 28566U 89006AH  25180.24781014 -.00000094  00000-0  10214-2 0  9997
2 28566   7.2166 321.1723 7081315 335.2767   2.9441  2.28923634104440
Source of the keplerian elements: AFSPC